Location: Chena
(64.8152°N, 147.9227°W)
Time: 00:32:09
(UTC+00:00)

Vanguard 2 - Pass Details

Date: 08 March 2021
Orbit: 552 x 2938 km, 32.9° (Epoch: 10 April)

Event Time Altitude Azimuth Distance (km) Brightness Sun altitude
Exits shadow 15:34:07 - 237° (WSW) 5,886 11.5 -7.2°
Reaches altitude 10° 15:40:01 10° 219° (SW) 5,323 11.4 -6.6°
Maximum altitude 15:47:30 15° 191° (S) 5,199 11.6 -5.8°
Drops below altitude 10° 15:55:31 10° 164° (SSE) 5,765 12.2 -4.9°
Sets 16:02:59 0° 145° (SE) 6,720 12.9 -4.1°
